Consulta les dades en temps real de l'estació municipal de Monistrol de Calders
| Hora UTC | 08:05 |
|---|---|
| Temperatura | 23.6 ºC |
| Humitat | 53.0 % |
| Pressió | 1017.2 hPa |
| Pluja | 0.0 mm |
| Velocitat vent | 0.0 km/h |
| Direcció vent | N |
| Temperatura (ºC) | Humitat (%) | Pressió (hPa) | Velocitat vent (km/h) | Precipitació (mm) | ||||||||||||
|---|---|---|---|---|---|---|---|---|---|---|---|---|---|---|---|---|
| Hora UTC | Aire | Humitat | Pressió | Vel. | Dir. | Vel. Max | Dir. | Intent. màx 5 min. | ||||||||
| 00:05 | 15.4 | 64.0 | 1016.0 | 3.2 | SSE | 3.2 | 0.0 | |||||||||
| 00:10 | 15.4 | 64.0 | 1015.9 | 6.4 | SE | 9.7 | 0.0 | |||||||||
| 00:15 | 15.2 | 65.0 | 1016.0 | 3.2 | ESE | 8.0 | 0.0 | |||||||||
| 00:20 | 15.2 | 65.0 | 1016.0 | 3.2 | SSE | 6.4 | 0.0 | |||||||||
| 00:25 | 15.2 | 65.0 | 1016.0 | 1.6 | ESE | 4.8 | 0.0 | |||||||||
| 00:30 | 15.1 | 65.0 | 1016.0 | 3.2 | SE | 3.2 | 0.0 | |||||||||
| 00:35 | 15.0 | 65.0 | 1016.0 | 0.0 | SE | 3.2 | 0.0 | |||||||||
| 00:40 | 14.9 | 66.0 | 1015.9 | 6.4 | SSE | 9.7 | 0.0 | |||||||||
| 00:45 | 14.8 | 66.0 | 1015.9 | 3.2 | E | 9.7 | 0.0 | |||||||||
| 00:50 | 14.7 | 67.0 | 1016.0 | 6.4 | ESE | 6.4 | 0.0 | |||||||||
| 00:55 | 14.6 | 67.0 | 1016.0 | 1.6 | ESE | 6.4 | 0.0 | |||||||||
| 01:00 | 14.6 | 67.0 | 1016.0 | 9.7 | SSE | 9.7 | 0.0 | |||||||||
| 01:05 | 14.6 | 67.0 | 1016.0 | 1.6 | SE | 9.7 | 0.0 | |||||||||
| 01:10 | 14.6 | 67.0 | 1016.0 | 3.2 | SSE | 6.4 | 0.0 | |||||||||
| 01:15 | 14.6 | 67.0 | 1015.9 | 3.2 | ESE | 6.4 | 0.0 | |||||||||
| 01:20 | 14.5 | 68.0 | 1016.0 | 4.8 | SSE | 6.4 | 0.0 | |||||||||
| 01:25 | 14.4 | 68.0 | 1016.0 | 3.2 | SSE | 4.8 | 0.0 | |||||||||
| 01:30 | 14.4 | 68.0 | 1016.0 | 4.8 | SE | 4.8 | 0.0 | |||||||||
| 01:35 | 14.3 | 68.0 | 1016.0 | 4.8 | SE | 8.0 | 0.0 | |||||||||
| 01:40 | 14.2 | 69.0 | 1016.0 | 1.6 | SE | 8.0 | 0.0 | |||||||||
| 01:45 | 14.2 | 69.0 | 1016.0 | 3.2 | ESE | 4.8 | 0.0 | |||||||||
| 01:50 | 14.2 | 69.0 | 1016.0 | 3.2 | SE | 8.0 | 0.0 | |||||||||
| 01:55 | 14.3 | 69.0 | 1016.0 | 0.0 | SE | 8.0 | 0.0 | |||||||||
| 02:00 | 14.2 | 69.0 | 1016.0 | 4.8 | SE | 4.8 | 0.0 | |||||||||
| 02:05 | 14.1 | 70.0 | 1016.0 | 4.8 | SE | 8.0 | 0.0 | |||||||||
| 02:10 | 14.1 | 70.0 | 1016.0 | 0.0 | SSE | 8.0 | 0.0 | |||||||||
| 02:15 | 14.1 | 69.0 | 1016.0 | 1.6 | SE | 4.8 | 0.0 | |||||||||
| 02:20 | 14.0 | 70.0 | 1016.0 | 1.6 | SSE | 4.8 | 0.0 | |||||||||
| 02:25 | 13.9 | 70.0 | 1016.0 | 3.2 | SE | 4.8 | 0.0 | |||||||||
| 02:30 | 13.9 | 71.0 | 1016.0 | 4.8 | SE | 4.8 | 0.0 | |||||||||
| 02:35 | 13.8 | 71.0 | 1016.0 | 1.6 | ESE | 6.4 | 0.0 | |||||||||
| 02:40 | 13.8 | 71.0 | 1016.1 | 3.2 | ESE | 6.4 | 0.0 | |||||||||
| 02:45 | 13.7 | 72.0 | 1016.2 | 3.2 | E | 4.8 | 0.0 | |||||||||
| 02:50 | 13.8 | 71.0 | 1016.2 | 1.6 | SE | 4.8 | 0.0 | |||||||||
| 02:55 | 13.7 | 72.0 | 1016.2 | 1.6 | SSE | 4.8 | 0.0 | |||||||||
| 03:00 | 13.7 | 72.0 | 1016.2 | 0.0 | SE | 4.8 | 0.0 | |||||||||
| 03:05 | 13.6 | 72.0 | 1016.2 | 4.8 | ESE | 4.8 | 0.0 | |||||||||
| 03:10 | 13.6 | 72.0 | 1016.2 | 1.6 | SE | 4.8 | 0.0 | |||||||||
| 03:15 | 13.5 | 72.0 | 1016.2 | 1.6 | ESE | 8.0 | 0.0 | |||||||||
| 03:20 | 13.4 | 73.0 | 1016.2 | 3.2 | ESE | 8.0 | 0.0 | |||||||||
| 03:25 | 13.4 | 73.0 | 1016.2 | 1.6 | ESE | 4.8 | 0.0 | |||||||||
| 03:30 | 13.4 | 73.0 | 1016.2 | 3.2 | SSE | 6.4 | 0.0 | |||||||||
| 03:35 | 13.2 | 74.0 | 1016.2 | 4.8 | SSE | 6.4 | 0.0 | |||||||||
| 03:40 | 13.2 | 74.0 | 1016.2 | 3.2 | SE | 6.4 | 0.0 | |||||||||
| 03:45 | 13.2 | 74.0 | 1016.2 | 0.0 | SE | 6.4 | 0.0 | |||||||||
| 03:50 | 13.2 | 75.0 | 1016.2 | 1.6 | ESE | 4.8 | 0.0 | |||||||||
| 03:55 | 13.2 | 75.0 | 1016.2 | 1.6 | SE | 6.4 | 0.0 | |||||||||
| 04:00 | 13.2 | 75.0 | 1016.2 | 1.6 | SE | 4.8 | 0.0 | |||||||||
| 04:05 | 13.1 | 75.0 | 1016.1 | 0.0 | SSE | 4.8 | 0.0 | |||||||||
| 04:10 | 13.1 | 75.0 | 1016.1 | 0.0 | ESE | 4.8 | 0.0 | |||||||||
| 04:15 | 13.0 | 75.0 | 1016.1 | 3.2 | ESE | 3.2 | 0.0 | |||||||||
| 04:20 | 12.9 | 76.0 | 1016.1 | 4.8 | SE | 4.8 | 0.0 | |||||||||
| 04:25 | 12.9 | 76.0 | 1016.1 | 1.6 | ESE | 4.8 | 0.0 | |||||||||
| 04:30 | 12.9 | 76.0 | 1016.1 | 3.2 | SE | 4.8 | 0.0 | |||||||||
| 04:35 | 12.8 | 76.0 | 1016.1 | 0.0 | SE | 4.8 | 0.0 | |||||||||
| 04:40 | 12.8 | 76.0 | 1016.0 | 1.6 | SE | 4.8 | 0.0 | |||||||||
| 04:45 | 12.7 | 76.0 | 1016.1 | 3.2 | SE | 3.2 | 0.0 | |||||||||
| 04:50 | 12.7 | 77.0 | 1016.1 | 3.2 | SE | 3.2 | 0.0 | |||||||||
| 04:55 | 12.7 | 77.0 | 1016.1 | 1.6 | SE | 4.8 | 0.0 | |||||||||
| 05:00 | 12.7 | 77.0 | 1016.2 | 0.0 | SE | 4.8 | 0.0 | |||||||||
| 05:05 | 12.7 | 77.0 | 1016.2 | 1.6 | SE | 4.8 | 0.0 | |||||||||
| 05:10 | 12.6 | 77.0 | 1016.2 | 1.6 | SE | 4.8 | 0.0 | |||||||||
| 05:15 | 12.6 | 77.0 | 1016.3 | 3.2 | SE | 3.2 | 0.0 | |||||||||
| 05:20 | 12.6 | 77.0 | 1016.3 | 1.6 | SE | 4.8 | 0.0 | |||||||||
| 05:25 | 12.6 | 78.0 | 1016.4 | 3.2 | SE | 4.8 | 0.0 | |||||||||
| 05:30 | 12.6 | 77.0 | 1016.5 | 3.2 | SE | 4.8 | 0.0 | |||||||||
| 05:35 | 12.5 | 77.0 | 1016.5 | 1.6 | SE | 4.8 | 0.0 | |||||||||
| 05:40 | 12.5 | 78.0 | 1016.5 | 1.6 | SE | 3.2 | 0.0 | |||||||||
| 05:45 | 12.6 | 78.0 | 1016.5 | 1.6 | SE | 3.2 | 0.0 | |||||||||
| 05:50 | 12.6 | 78.0 | 1016.5 | 0.0 | ESE | 3.2 | 0.0 | |||||||||
| 05:55 | 12.7 | 78.0 | 1016.6 | 0.0 | SE | 3.2 | 0.0 | |||||||||
| 06:00 | 12.7 | 77.0 | 1016.6 | 0.0 | SE | 3.2 | 0.0 | |||||||||
| 06:05 | 12.7 | 77.0 | 1016.7 | 0.0 | SE | 3.2 | 0.0 | |||||||||
| 06:10 | 13.1 | 77.0 | 1016.8 | 3.2 | SE | 3.2 | 0.0 | |||||||||
| 06:15 | 13.4 | 77.0 | 1016.8 | 1.6 | E | 3.2 | 0.0 | |||||||||
| 06:20 | 13.8 | 76.0 | 1016.9 | 1.6 | ESE | 3.2 | 0.0 | |||||||||
| 06:25 | 14.2 | 75.0 | 1016.9 | 1.6 | ESE | 3.2 | 0.0 | |||||||||
| 06:30 | 14.6 | 72.0 | 1017.0 | 0.0 | SE | 3.2 | 0.0 | |||||||||
| 06:35 | 14.7 | 72.0 | 1017.0 | 1.6 | SE | 3.2 | 0.0 | |||||||||
| 06:40 | 15.0 | 72.0 | 1017.0 | 0.0 | SE | 3.2 | 0.0 | |||||||||
| 06:45 | 15.4 | 72.0 | 1017.0 | 1.6 | ESE | 3.2 | 0.0 | |||||||||
| 06:50 | 15.9 | 70.0 | 1017.1 | 0.0 | ESE | 1.6 | 0.0 | |||||||||
| 06:55 | 16.4 | 68.0 | 1017.1 | 1.6 | ESE | 1.6 | 0.0 | |||||||||
| 07:00 | 16.9 | 68.0 | 1017.1 | 1.6 | ESE | 1.6 | 0.0 | |||||||||
| 07:05 | 17.9 | 64.0 | 1017.1 | 0.0 | ESE | 1.6 | 0.0 | |||||||||
| 07:10 | 18.6 | 63.0 | 1017.1 | 0.0 | ESE | 3.2 | 0.0 | |||||||||
| 07:15 | 19.2 | 60.0 | 1017.1 | 0.0 | ESE | 3.2 | 0.0 | |||||||||
| 07:20 | 19.4 | 60.0 | 1017.0 | 0.0 | ESE | 3.2 | 0.0 | |||||||||
| 07:25 | 19.8 | 59.0 | 1017.1 | 0.0 | SE | 1.6 | 0.0 | |||||||||
| 07:30 | 20.0 | 58.0 | 1017.1 | 1.6 | SE | 3.2 | 0.0 | |||||||||
| 07:35 | 20.2 | 58.0 | 1017.1 | 1.6 | ESE | 3.2 | 0.0 | |||||||||
| 07:40 | 20.9 | 56.0 | 1017.1 | 1.6 | ENE | 3.2 | 0.0 | |||||||||
| 07:45 | 21.5 | 56.0 | 1017.1 | 0.0 | WSW | 3.2 | 0.0 | |||||||||
| 07:50 | 22.1 | 55.0 | 1017.1 | 1.6 | NNE | 4.8 | 0.0 | |||||||||
| 07:55 | 22.4 | 54.0 | 1017.1 | 0.0 | NE | 4.8 | 0.0 | |||||||||
| 08:00 | 22.9 | 53.0 | 1017.2 | 1.6 | NNW | 3.2 | 0.0 | |||||||||
| 08:05 | 23.6 | 53.0 | 1017.2 | 0.0 | N | 3.2 | 0.0 | |||||||||
| Màxima | 23.6 | 78.0 | 1017.2 | 9.7 | SSE | 9.7 | 0.0 | |||||||||
| Mínima | 12.5 | 53.0 | 1015.9 | |||||||||||||
| Total | 0.0 | |||||||||||||||